Flag for Morocco Weather past 2 weeks in Casablanca, Morocco

Now
55 °F

Passing clouds.


Feels Like: N/A
Forecast: 52 / 59 °F
Wind: N/A

Location: Casablanca Airport

Current Time: Feb 1, 2015 at 6:38:28 AM

Latest Report: Feb 1, 2015 at 6:00 AM


Visibility: 5 mi

Pressure: 30.09 "Hg

Humidity: 67%

Dew point: 45 °F

Location of CasablancaLocation

Historic Weather in Casablanca — Graph

°F

Casablanca temperature yesterday

Maximum temperature yesterday: 63 °F (at 12:00 PM)
Minimum temperature yesterday: 57 °F (at 9:00 AM)
Average temperature yesterday: 60 °F

Past Weeks' High & Low Weather Summary

 TemperatureHumidityPressure
High64 °F (Jan 30, 3:00 PM)100% (Jan 18, 5:00 PM)30.36 "Hg (Jan 18, 5:00 PM)
Low45 °F (Jan 26, 6:00 AM)48% (Jan 21, 3:00 PM)29.89 "Hg (Jan 18, 4:00 PM)
Average56 °F77%30.18 "Hg
* Reported Jan 17 7:00 AM — Feb 1 5:00 AM, Casablanca, Weather by CustomWeather, © 2014

Note: Actual official high and low records may vary slightly from our data, if they occured in-between our weather recording intervals... More about our weather records

Advertising

Casablanca weather history for previous 24 hours

 ConditionsComfort  
Time TempWeatherWind HumidityBarometerVisibility
5:00 AM
Feb 1
57 °FPassing clouds.N/A67%30.09 "Hg5 mi
12:00 AM57 °FPassing clouds.N/A67%30.09 "Hg4 mi
11:00 PM
Jan 31
59 °FPassing clouds.N/A68%30.07 "Hg4 mi
10:00 PM59 °FPartly cloudy.N/A77%30.07 "Hg4 mi
9:00 PM59 °FPartly cloudy.N/A82%30.04 "Hg4 mi
8:00 PM59 °FPartly cloudy.N/A82%30.04 "Hg4 mi
7:00 PM59 °FPartly cloudy.N/A82%30.04 "Hg4 mi
6:00 PM59 °FRain. Partly cloudy.N/A82%30.04 "Hg4 mi
5:00 PM61 °FPartly cloudy.N/A77%30.01 "Hg5 mi
4:00 PM61 °FBroken clouds.N/A77%30.01 "Hg5 mi
3:00 PM63 °FBroken clouds.N/A73%30.01 "Hg5 mi
2:00 PM63 °FBroken clouds.N/A73%30.01 "Hg5 mi
1:00 PM63 °FBroken clouds.N/A68%30.04 "Hg5 mi
12:00 PM63 °FScattered clouds.N/A73%30.04 "Hg5 mi
11:00 AM61 °FScattered clouds.N/A77%30.04 "Hg5 mi
10:00 AM59 °FMore clouds than sun.N/A82%30.04 "Hg4 mi
9:00 AM57 °FLight rain. More clouds than sun.N/A100%30.01 "Hg3 mi
8:00 AM59 °FLight rain. More clouds than sun.N/A94%30.01 "Hg3 mi
7:00 AM59 °FOvercast.N/A94%29.98 "HgN/A
Weather by CustomWeather, © 2014

See weather overviewHow to use our weather pages